JAT3852 SCIE-SAEZ

Flight info

Callsign JAT3852
Flight time N/A
Altitude 37000
Route LODOS4N LODOS DCT MLG UM783 GPI UW68 ASADA ASADA7X
Aircraft A21N/M-SDE2E3FGHIRWXY/LB1

Departure

Time 2026-04-21 13:25
Airport Carriel Sur International Airport (SCIE)

Arrival

Time N/A
Airport Ezeiza International Airport - Ministro Pistarini (SAEZ)
Time Latitude Longitude Altitude Speed Heading
2026-04-21 13:12 -36.77630 -73.05935 29 ft 0 kts 184°
2026-04-21 13:17 -36.77625 -73.05934 29 ft 2 kts 184°
2026-04-21 13:18 -36.77609 -73.05933 29 ft 2 kts 187°
2026-04-21 13:18 -36.77593 -73.05930 29 ft 2 kts 191°
2026-04-21 13:18 -36.77577 -73.05924 28 ft 2 kts 202°
2026-04-21 13:18 -36.77564 -73.05912 28 ft 2 kts 258°
2026-04-21 13:19 -36.77564 -73.05901 28 ft 0 kts 279°
2026-04-21 13:20 -36.77561 -73.05921 28 ft 6 kts 279°
2026-04-21 13:20 -36.77554 -73.06016 29 ft 15 kts 281°
2026-04-21 13:20 -36.77504 -73.06157 29 ft 20 kts 313°
2026-04-21 13:21 -36.77380 -73.06137 28 ft 21 kts 25°
2026-04-21 13:21 -36.77233 -73.06051 27 ft 25 kts 25°
2026-04-21 13:21 -36.77069 -73.05957 28 ft 27 kts 22°
2026-04-21 13:21 -36.76897 -73.05856 28 ft 28 kts 25°
2026-04-21 13:22 -36.76722 -73.05756 23 ft 28 kts 25°
2026-04-21 13:22 -36.76548 -73.05654 21 ft 28 kts 24°
2026-04-21 13:22 -36.76392 -73.05591 20 ft 19 kts 341°
2026-04-21 13:22 -36.76319 -73.05701 20 ft 16 kts 308°
2026-04-21 13:23 -36.76222 -73.05713 20 ft 15 kts 26°
2026-04-21 13:23 -36.76153 -73.05616 18 ft 12 kts 36°
2026-04-21 13:23 -36.76127 -73.05646 18 ft 4 kts 250°
2026-04-21 13:23 -36.76141 -73.05664 18 ft 3 kts 213°
2026-04-21 13:24 -36.76191 -73.05697 20 ft 23 kts 205°
2026-04-21 13:24 -36.76541 -73.05898 24 ft 87 kts 205°
2026-04-21 13:24 -36.77294 -73.06334 29 ft 153 kts 204°
2026-04-21 13:24 -36.78357 -73.06950 264 ft 179 kts 205°
2026-04-21 13:25 -36.79518 -73.07647 674 ft 191 kts 206°
2026-04-21 13:25 -36.80732 -73.08407 1205 ft 199 kts 205°
2026-04-21 13:25 -36.81998 -73.09049 1969 ft 193 kts 194°
2026-04-21 13:25 -36.83320 -73.09140 2836 ft 192 kts 167°
2026-04-21 13:26 -36.84425 -73.08298 3626 ft 193 kts 127°
2026-04-21 13:26 -36.84787 -73.06618 4025 ft 219 kts 85°
2026-04-21 13:26 -36.84112 -73.04861 4388 ft 244 kts 48°
2026-04-21 13:26 -36.82883 -73.03330 5037 ft 256 kts 53°
2026-04-21 13:27 -36.82143 -73.01273 5648 ft 267 kts 76°
2026-04-21 13:27 -36.81712 -72.98988 6531 ft 273 kts 78°
2026-04-21 13:27 -36.81295 -72.96654 7393 ft 278 kts 77°
2026-04-21 13:27 -36.80854 -72.94284 8250 ft 283 kts 76°
2026-04-21 13:28 -36.80158 -72.91989 9087 ft 286 kts 52°
2026-04-21 13:28 -36.78760 -72.90247 9977 ft 285 kts 37°
2026-04-21 13:28 -36.77192 -72.88742 10653 ft 295 kts 35°
2026-04-21 13:28 -36.75492 -72.87152 10991 ft 316 kts 35°
2026-04-21 13:29 -36.73685 -72.85437 11322 ft 337 kts 36°
2026-04-21 13:29 -36.71772 -72.83597 11655 ft 357 kts 36°
2026-04-21 13:29 -36.69774 -72.81658 12184 ft 369 kts 37°
2026-04-21 13:29 -36.67732 -72.79668 12873 ft 376 kts 37°
2026-04-21 13:30 -36.65660 -72.77650 13580 ft 381 kts 37°
2026-04-21 13:30 -36.63557 -72.75599 14263 ft 386 kts 37°
2026-04-21 13:30 -36.61436 -72.73531 14887 ft 390 kts 37°
2026-04-21 13:30 -36.59317 -72.71466 15506 ft 394 kts 36°
2026-04-21 13:31 -36.57146 -72.69353 16122 ft 398 kts 36°
2026-04-21 13:31 -36.54950 -72.67218 16745 ft 402 kts 36°
2026-04-21 13:31 -36.52738 -72.65068 17342 ft 406 kts 36°
2026-04-21 13:31 -36.50503 -72.62896 17927 ft 410 kts 36°
2026-04-21 13:32 -36.48248 -72.60708 18501 ft 413 kts 36°
2026-04-21 13:32 -36.45970 -72.58499 18964 ft 418 kts 36°
2026-04-21 13:32 -36.43700 -72.56298 19456 ft 420 kts 36°
2026-04-21 13:32 -36.41390 -72.54061 19978 ft 423 kts 36°
2026-04-21 13:33 -36.39066 -72.51809 20508 ft 424 kts 36°
2026-04-21 13:33 -36.36736 -72.49556 21003 ft 427 kts 36°
2026-04-21 13:33 -36.34384 -72.47285 21471 ft 430 kts 36°
2026-04-21 13:33 -36.32017 -72.45002 21939 ft 432 kts 36°
2026-04-21 13:34 -36.29637 -72.42707 22390 ft 435 kts 36°
2026-04-21 13:34 -36.27240 -72.40397 22827 ft 437 kts 36°
2026-04-21 13:34 -36.24833 -72.38079 23256 ft 440 kts 37°
2026-04-21 13:34 -36.22443 -72.35778 23664 ft 442 kts 36°
2026-04-21 13:35 -36.20005 -72.33434 24016 ft 445 kts 36°
2026-04-21 13:35 -36.17556 -72.31082 24381 ft 447 kts 37°
2026-04-21 13:35 -36.15093 -72.28717 24748 ft 449 kts 36°
2026-04-21 13:35 -36.12624 -72.26349 25084 ft 451 kts 36°
2026-04-21 13:36 -36.10137 -72.23964 25381 ft 454 kts 37°
2026-04-21 13:36 -36.07736 -72.21402 25714 ft 458 kts 43°
2026-04-21 13:36 -36.05671 -72.18456 26071 ft 461 kts 53°
2026-04-21 13:36 -36.04007 -72.15057 26424 ft 464 kts 63°
2026-04-21 13:37 -36.02821 -72.11335 26767 ft 467 kts 71°
2026-04-21 13:37 -36.01901 -72.07478 27089 ft 469 kts 73°
2026-04-21 13:37 -36.01099 -72.03578 27530 ft 468 kts 75°
2026-04-21 13:37 -36.00350 -71.99683 27996 ft 465 kts 75°
2026-04-21 13:38 -35.99614 -71.95807 28433 ft 464 kts 75°
2026-04-21 13:38 -35.98868 -71.91932 28856 ft 462 kts 75°
2026-04-21 13:38 -35.98120 -71.88137 29261 ft 461 kts 75°
2026-04-21 13:38 -35.97351 -71.84304 29682 ft 459 kts 75°
2026-04-21 13:39 -35.96575 -71.80486 30128 ft 457 kts 75°
2026-04-21 13:39 -35.95797 -71.76688 30518 ft 456 kts 74°
2026-04-21 13:39 -35.95017 -71.72904 30823 ft 456 kts 74°
2026-04-21 13:39 -35.94235 -71.69114 31112 ft 456 kts 74°
2026-04-21 13:40 -35.93453 -71.65330 31391 ft 456 kts 74°
2026-04-21 13:40 -35.92668 -71.61536 31685 ft 455 kts 74°
2026-04-21 13:40 -35.91884 -71.57749 31985 ft 455 kts 74°
2026-04-21 13:40 -35.91111 -71.54021 32236 ft 455 kts 73°
2026-04-21 13:41 -35.90326 -71.50237 32431 ft 457 kts 73°
2026-04-21 13:41 -35.89537 -71.46445 32695 ft 456 kts 74°
2026-04-21 13:41 -35.88748 -71.42655 32985 ft 455 kts 74°
2026-04-21 13:41 -35.87960 -71.38878 33257 ft 455 kts 73°
2026-04-21 13:42 -35.87170 -71.35102 33529 ft 455 kts 74°
2026-04-21 13:42 -35.86380 -71.31325 33777 ft 454 kts 73°
2026-04-21 13:42 -35.85590 -71.27558 34010 ft 454 kts 74°
2026-04-21 13:42 -35.84811 -71.23849 34224 ft 454 kts 73°
2026-04-21 13:43 -35.84019 -71.20085 34376 ft 454 kts 73°
2026-04-21 13:43 -35.83222 -71.16304 34496 ft 456 kts 73°
2026-04-21 13:43 -35.82423 -71.12526 34605 ft 457 kts 73°
2026-04-21 13:43 -35.81620 -71.08729 34752 ft 458 kts 73°
2026-04-21 13:44 -35.80817 -71.04940 34902 ft 459 kts 73°
2026-04-21 13:44 -35.80009 -71.01132 35054 ft 459 kts 73°
2026-04-21 13:44 -35.79200 -70.97325 35168 ft 461 kts 73°
2026-04-21 13:44 -35.78386 -70.93502 35306 ft 461 kts 73°
2026-04-21 13:45 -35.77570 -70.89679 35439 ft 462 kts 73°
2026-04-21 13:45 -35.76761 -70.85895 35517 ft 464 kts 73°
2026-04-21 13:45 -35.75112 -70.78196 35719 ft 466 kts 73°
2026-04-21 13:46 -35.74284 -70.74338 35858 ft 466 kts 73°
2026-04-21 13:46 -35.73452 -70.70478 35980 ft 467 kts 73°
2026-04-21 13:46 -35.72620 -70.66615 36092 ft 468 kts 72°
2026-04-21 13:46 -35.71783 -70.62737 36183 ft 469 kts 72°
2026-04-21 13:47 -35.70946 -70.58863 36284 ft 469 kts 72°
2026-04-21 13:47 -35.70117 -70.55035 36391 ft 470 kts 72°
2026-04-21 13:47 -35.68424 -70.47232 36484 ft 474 kts 72°
2026-04-21 13:48 -35.67574 -70.43323 36664 ft 473 kts 72°
2026-04-21 13:48 -35.66723 -70.39417 36751 ft 474 kts 72°
2026-04-21 13:48 -35.65009 -70.31575 36944 ft 475 kts 72°
2026-04-21 13:49 -35.63282 -70.23707 37065 ft 478 kts 72°
2026-04-21 13:49 -35.61545 -70.15815 37178 ft 480 kts 72°
2026-04-21 13:50 -35.59801 -70.07919 37175 ft 483 kts 72°
2026-04-21 13:50 -35.58043 -69.99978 37192 ft 482 kts 72°
2026-04-21 13:51 -35.56278 -69.92037 37221 ft 482 kts 72°
2026-04-21 13:51 -35.54508 -69.84105 37232 ft 482 kts 72°
2026-04-21 13:52 -35.52743 -69.76220 37254 ft 483 kts 72°
2026-04-21 13:52 -35.50956 -69.68267 37263 ft 483 kts 72°
2026-04-21 13:53 -35.49252 -69.60297 37264 ft 484 kts 78°
2026-04-21 13:53 -35.48955 -69.52039 37251 ft 487 kts 91°
2026-04-21 13:54 -35.49355 -69.43777 37267 ft 490 kts 93°
2026-04-21 13:54 -35.49887 -69.35431 37271 ft 491 kts 93°
2026-04-21 13:55 -35.50404 -69.27080 37271 ft 490 kts 93°
2026-04-21 13:55 -35.50889 -69.18731 37263 ft 490 kts 93°
2026-04-21 13:56 -35.51354 -69.10426 37268 ft 492 kts 93°
2026-04-21 13:56 -35.51815 -69.02046 37264 ft 492 kts 93°
2026-04-21 13:57 -35.52272 -68.93667 37251 ft 492 kts 93°
2026-04-21 13:57 -35.52724 -68.85289 37238 ft 492 kts 93°
2026-04-21 13:58 -35.53171 -68.76885 37241 ft 494 kts 93°
2026-04-21 13:58 -35.53612 -68.68510 37240 ft 495 kts 93°
2026-04-21 13:59 -35.54049 -68.60088 37222 ft 494 kts 92°
2026-04-21 13:59 -35.54478 -68.51690 37211 ft 493 kts 93°
2026-04-21 14:00 -35.54904 -68.43261 37223 ft 495 kts 92°
2026-04-21 14:00 -35.55320 -68.34880 37220 ft 496 kts 92°
2026-04-21 14:01 -35.55734 -68.26423 37224 ft 496 kts 92°
2026-04-21 14:01 -35.56145 -68.17958 37225 ft 496 kts 92°
2026-04-21 14:02 -35.56548 -68.09481 37235 ft 499 kts 92°
2026-04-21 14:03 -35.57143 -67.96762 37227 ft 500 kts 92°
2026-04-21 14:03 -35.57535 -67.88244 37236 ft 500 kts 92°
2026-04-21 14:04 -35.57921 -67.79723 37244 ft 500 kts 92°
2026-04-21 14:04 -35.58301 -67.71204 37244 ft 499 kts 92°
2026-04-21 14:05 -35.58672 -67.62745 37245 ft 498 kts 92°
2026-04-21 14:05 -35.59039 -67.54248 37248 ft 498 kts 92°
2026-04-21 14:06 -35.59400 -67.45735 37249 ft 500 kts 92°
2026-04-21 14:06 -35.59756 -67.37198 37250 ft 501 kts 92°
2026-04-21 14:07 -35.60105 -67.28708 37245 ft 501 kts 92°
2026-04-21 14:07 -35.60450 -67.20154 37239 ft 501 kts 92°
2026-04-21 14:08 -35.60789 -67.11581 37243 ft 504 kts 92°
2026-04-21 14:08 -35.61125 -67.02955 37244 ft 505 kts 92°
2026-04-21 14:09 -35.61452 -66.94392 37248 ft 505 kts 92°
2026-04-21 14:09 -35.61775 -66.85773 37240 ft 506 kts 92°
2026-04-21 14:10 -35.62094 -66.77099 37246 ft 509 kts 92°
2026-04-21 14:10 -35.62407 -66.68408 37249 ft 509 kts 92°
2026-04-21 14:11 -35.62714 -66.59729 37243 ft 508 kts 92°
2026-04-21 14:11 -35.63012 -66.51100 37244 ft 510 kts 92°
2026-04-21 14:12 -35.63308 -66.42371 37244 ft 512 kts 92°
2026-04-21 14:12 -35.63599 -66.33622 37240 ft 512 kts 91°
2026-04-21 14:13 -35.63882 -66.24880 37241 ft 512 kts 91°
2026-04-21 14:13 -35.64160 -66.16120 37247 ft 515 kts 91°
2026-04-21 14:14 -35.64432 -66.07356 37240 ft 517 kts 91°
2026-04-21 14:14 -35.64698 -65.98525 37239 ft 517 kts 91°
2026-04-21 14:15 -35.64957 -65.89698 37231 ft 517 kts 91°
2026-04-21 14:15 -35.65210 -65.80840 37236 ft 520 kts 91°
2026-04-21 14:16 -35.65456 -65.72008 37239 ft 520 kts 91°
2026-04-21 14:16 -35.65697 -65.63120 37235 ft 520 kts 91°
2026-04-21 14:17 -35.65932 -65.54225 37230 ft 522 kts 91°
2026-04-21 14:17 -35.66161 -65.45291 37231 ft 524 kts 91°
2026-04-21 14:18 -35.66383 -65.36398 37226 ft 524 kts 91°
2026-04-21 14:18 -35.66600 -65.27448 37214 ft 524 kts 91°
2026-04-21 14:19 -35.66810 -65.18481 37227 ft 526 kts 91°
2026-04-21 14:19 -35.67015 -65.09473 37225 ft 527 kts 91°
2026-04-21 14:20 -35.67213 -65.00473 37225 ft 527 kts 91°
2026-04-21 14:20 -35.67403 -64.91526 37220 ft 527 kts 90°
2026-04-21 14:21 -35.67588 -64.82500 37222 ft 528 kts 90°
2026-04-21 14:21 -35.67764 -64.73467 37216 ft 528 kts 91°
2026-04-21 14:22 -35.67933 -64.64443 37227 ft 528 kts 91°
2026-04-21 14:22 -35.68093 -64.55476 37228 ft 528 kts 90°
2026-04-21 14:23 -35.68249 -64.46456 37221 ft 528 kts 90°
2026-04-21 14:23 -35.68397 -64.37439 37220 ft 527 kts 90°
2026-04-21 14:24 -35.68539 -64.28415 37217 ft 528 kts 90°
2026-04-21 14:24 -35.68674 -64.19382 37218 ft 528 kts 90°
2026-04-21 14:25 -35.68802 -64.10409 37199 ft 528 kts 90°
2026-04-21 14:25 -35.68924 -64.01374 37188 ft 528 kts 90°
2026-04-21 14:26 -35.69039 -63.92330 37188 ft 529 kts 90°